Weather History for KW29 - August, 2013

Change the Weather History Date:

Saturday, August 17, 2013

  Actual Average (KESN) Record (KESN)
Temperature  
Mean Temperature 69 °F -  
Max Temperature 78 °F 86 °F 95 °F (1968)
Min Temperature 60 °F 67 °F 52 °F (1963)
Cooling Degree Days 4    
Growing Degree Days 19 (Base 50)    
Moisture  
Dew Point 57 °F    
Average Humidity 65    
Maximum Humidity 94    
Minimum Humidity 39    
Precipitation  
Precipitation 0.00 in - - ()
Sea Level Pressure  
Sea Level Pressure 30.24 in    
Wind  
Wind Speed 4 mph (ENE)    
Max Wind Speed 10 mph    
Max Gust Speed -    
Visibility 10 miles    
Events Rain    
Averages and records for this station are not official NWS values.
T = Trace of Precipitation, MM = Missing Value Source: NWS Daily Summary

Daily Weather History Graph

Daily Weather History Graph

Search for Another Location

Airport or City:

Trip Planner

Search our weather history database for the weather conditions in past years. The results will help you decide how hot, cold, wet, or windy it might be!

Date:

Astronomy

Aug. 17, 2013 Rise Set
Actual Time 6:20 AM EDT 7:57 PM EDT
Civil Twilight 5:52 AM EDT 8:25 PM EDT
Nautical Twilight 5:18 AM EDT 8:59 PM EDT
Astronomical Twilight 4:41 AM EDT 9:35 PM EDT
Moon 5:09 PM EDT (8/17) 2:22 AM EDT (8/17)
Length of Visible Light 14h 33m
Length of Day
13h 36m
Waxing Gibbous, 84% of the Moon is Illuminated
Aug 17
Waxing Gibbous
Aug 20
Full
Aug 28
Last Quarter
Sep 5
New
Sep 12
First Quarter

Hourly Weather History & Observations

Time (EDT) Temp. Dew Point Humidity Pressure Visibility Wind Dir Wind Speed Gust Speed Precip Events Conditions
12:17 AM 66.2 °F 59.0 °F 78% 30.21 in 10.0 mi ESE 3.5 mph - N/A   Clear
12:37 AM 64.4 °F 59.0 °F 83% 30.22 in 10.0 mi ESE 3.5 mph - N/A   Clear
12:57 AM 64.4 °F 59.0 °F 83% 30.22 in 10.0 mi Calm Calm - N/A   Clear
1:17 AM 64.4 °F 59.0 °F 83% 30.22 in 10.0 mi Calm Calm - N/A   Clear
1:37 AM 62.6 °F 60.8 °F 94% 30.21 in 10.0 mi Calm Calm - N/A   Clear
1:57 AM 62.6 °F 60.8 °F 94% 30.21 in 10.0 mi East 3.5 mph - N/A   Clear
2:17 AM 62.6 °F 60.8 °F 94% 30.21 in 10.0 mi Calm Calm - N/A   Clear
2:37 AM 62.6 °F 59.0 °F 88% 30.20 in 10.0 mi Calm Calm - N/A   Clear
2:57 AM 62.6 °F 59.0 °F 88% 30.21 in 10.0 mi Calm Calm - N/A   Clear
3:17 AM 62.6 °F 59.0 °F 88% 30.20 in 10.0 mi Calm Calm - N/A   Clear
3:37 AM 60.8 °F 59.0 °F 94% 30.21 in 10.0 mi Calm Calm - N/A   Clear
3:57 AM 60.8 °F 57.2 °F 88% 30.20 in 10.0 mi North 3.5 mph - N/A   Clear
4:17 AM 62.6 °F 57.2 °F 82% 30.20 in 10.0 mi NNE 4.6 mph - N/A   Clear
4:37 AM 66.2 °F 55.4 °F 68% 30.20 in 10.0 mi NE 4.6 mph - N/A   Clear
4:57 AM 66.2 °F 59.0 °F 78% 30.21 in 10.0 mi NE 3.5 mph - N/A   Clear
5:17 AM 64.4 °F 60.8 °F 88% 30.22 in 10.0 mi ENE 3.5 mph - N/A   Clear
5:37 AM 64.4 °F 59.0 °F 83% 30.22 in 10.0 mi ENE 3.5 mph - N/A   Clear
5:57 AM 64.4 °F 59.0 °F 83% 30.22 in 10.0 mi NE 3.5 mph - N/A   Clear
6:17 AM 64.4 °F 57.2 °F 77% 30.23 in 10.0 mi NNE 4.6 mph - N/A   Clear
6:37 AM 64.4 °F 57.2 °F 77% 30.24 in 10.0 mi Calm Calm - N/A   Clear
6:57 AM 64.4 °F 60.8 °F 88% 30.24 in 10.0 mi NNE 4.6 mph - N/A   Clear
7:18 AM 66.2 °F 60.8 °F 83% 30.25 in 10.0 mi NNE 3.5 mph - N/A   Clear
7:38 AM 66.2 °F 60.8 °F 83% 30.25 in 10.0 mi NNE 3.5 mph - N/A   Clear
7:58 AM 68.0 °F 60.8 °F 78% 30.25 in 10.0 mi NNE 4.6 mph - N/A   Clear
8:18 AM 68.0 °F 60.8 °F 78% 30.25 in 10.0 mi NNE 3.5 mph - N/A   Clear
8:38 AM 71.6 °F 59.0 °F 64% 30.25 in 10.0 mi NE 5.8 mph - N/A   Clear
8:58 AM 69.8 °F 57.2 °F 64% 30.25 in 10.0 mi NNE 4.6 mph - N/A   Clear
9:18 AM 69.8 °F 59.0 °F 68% 30.25 in 10.0 mi NE 4.6 mph - N/A   Clear
9:38 AM 71.6 °F 59.0 °F 64% 30.26 in 10.0 mi NE 5.8 mph - N/A   Clear
9:58 AM 69.8 °F 57.2 °F 64% 30.26 in 10.0 mi NE 5.8 mph - N/A   Clear
10:18 AM 69.8 °F 57.2 °F 64% 30.27 in 10.0 mi NE 4.6 mph - N/A   Clear
10:38 AM 71.6 °F 59.0 °F 64% 30.27 in 10.0 mi ENE 5.8 mph - N/A   Clear
10:58 AM 71.6 °F 57.2 °F 60% 30.27 in 10.0 mi ENE 6.9 mph - N/A   Clear
11:18 AM 71.6 °F 57.2 °F 60% 30.28 in 10.0 mi Calm Calm - N/A   Clear
11:38 AM 71.6 °F 55.4 °F 57% 30.28 in 10.0 mi ENE 6.9 mph - N/A   Clear
11:58 AM 73.4 °F 55.4 °F 53% 30.28 in 10.0 mi East 6.9 mph - N/A   Clear
12:18 PM 73.4 °F 55.4 °F 53% 30.26 in 10.0 mi ENE 6.9 mph - N/A   Clear
12:38 PM 73.4 °F 53.6 °F 50% 30.26 in 10.0 mi ENE 9.2 mph - N/A   Clear
12:58 PM 75.2 °F 55.4 °F 50% 30.26 in 10.0 mi NE 8.1 mph - N/A   Clear
1:18 PM 77.0 °F 55.4 °F 47% 30.25 in 10.0 mi NNE 5.8 mph - N/A   Clear
1:38 PM 77.0 °F 55.4 °F 47% 30.25 in 10.0 mi East 8.1 mph - N/A   Clear
1:58 PM 77.0 °F 53.6 °F 44% 30.25 in 10.0 mi NE 5.8 mph - N/A   Clear
2:18 PM 78.8 °F 55.4 °F 44% 30.24 in 10.0 mi East 5.8 mph - N/A   Clear
2:38 PM 77.0 °F 51.8 °F 41% 30.24 in 10.0 mi East 8.1 mph - N/A   Clear
2:58 PM 77.0 °F 51.8 °F 41% 30.24 in 10.0 mi East 5.8 mph - N/A   Clear
3:18 PM 78.8 °F 51.8 °F 39% 30.24 in 10.0 mi East 5.8 mph - N/A   Clear
3:38 PM 78.8 °F 51.8 °F 39% 30.24 in 10.0 mi East 10.4 mph - N/A   Clear
3:59 PM 78.8 °F 51.8 °F 39% 30.23 in 10.0 mi ENE 5.8 mph - N/A   Clear
4:19 PM 78.8 °F 53.6 °F 42% 30.22 in 10.0 mi ENE 6.9 mph - N/A   Clear
4:39 PM 77.0 °F 53.6 °F 44% 30.23 in 10.0 mi ENE 4.6 mph - N/A   Clear
4:59 PM 77.0 °F 55.4 °F 47% 30.23 in 10.0 mi NE 5.8 mph - N/A   Clear
5:19 PM 77.0 °F 55.4 °F 47% 30.23 in 10.0 mi NE 4.6 mph - N/A   Clear
5:39 PM 78.8 °F 55.4 °F 44% 30.23 in 10.0 mi East 8.1 mph - N/A   Clear
5:59 PM 77.0 °F 53.6 °F 44% 30.23 in 10.0 mi East 8.1 mph - N/A   Scattered Clouds
6:19 PM 77.0 °F 53.6 °F 44% 30.23 in 10.0 mi East 8.1 mph - N/A   Mostly Cloudy
6:39 PM 77.0 °F 53.6 °F 44% 30.23 in 10.0 mi East 5.8 mph - N/A   Scattered Clouds
6:59 PM 75.2 °F 51.8 °F 44% 30.23 in 10.0 mi East 6.9 mph - N/A   Scattered Clouds
7:19 PM 73.4 °F 53.6 °F 50% 30.23 in 10.0 mi East 6.9 mph - N/A   Scattered Clouds
7:39 PM 73.4 °F 55.4 °F 53% 30.23 in 10.0 mi East 5.8 mph - N/A   Scattered Clouds
7:59 PM 73.4 °F 55.4 °F 53% 30.24 in 10.0 mi East 5.8 mph - N/A   Clear
8:19 PM 71.6 °F 57.2 °F 60% 30.24 in 10.0 mi East 8.1 mph - N/A   Clear
8:39 PM 71.6 °F 59.0 °F 64% 30.24 in 10.0 mi East 8.1 mph - N/A   Clear
8:59 PM 71.6 °F 59.0 °F 64% 30.24 in 10.0 mi East 9.2 mph - N/A   Clear
9:19 PM 71.6 °F 60.8 °F 69% 30.25 in 10.0 mi ESE 6.9 mph - N/A   Clear
9:39 PM 71.6 °F 60.8 °F 69% 30.26 in 10.0 mi East 6.9 mph - N/A   Clear
9:59 PM 69.8 °F 60.8 °F 73% 30.26 in 10.0 mi East 5.8 mph - N/A   Clear
10:19 PM 69.8 °F 60.8 °F 73% 30.25 in 10.0 mi East 5.8 mph - N/A   Clear
10:39 PM 69.8 °F 60.8 °F 73% 30.25 in 10.0 mi ESE 6.9 mph - N/A   Clear
10:59 PM 69.8 °F 60.8 °F 73% 30.25 in 10.0 mi East 5.8 mph - N/A   Scattered Clouds
11:19 PM 69.8 °F 60.8 °F 73% 30.25 in 10.0 mi ESE 5.8 mph - N/A Rain Light Rain
11:39 PM 69.8 °F 60.8 °F 73% 30.24 in 10.0 mi East 4.6 mph - N/A   Scattered Clouds
11:59 PM 69.8 °F 60.8 °F 73% 30.23 in 10.0 mi East 6.9 mph - N/A   Clear